Location: Foligno
(42.9600°N, 12.7050°E)
Time: 08:46:56
(UTC+02:00)

ISS - Pass Details

Date: 18 July 2018
Orbit: 402 x 408 km, 51.6° (Epoch: 16 July)

Event Time Altitude Azimuth Distance (km) Brightness Sun altitude
Rises 22:16:01 0° 210° (SSW) 2,305 -0.2 -14.0°
Enters shadow 22:17:27 - 204° (SSW) 1,745 -0.9 -14.1°
Exits shadow 22:25:46 - 66° (ENE) 2,158 -0.3 -15.1°
Sets 22:26:12 0° 64° (ENE) 2,327 -0.1 -15.2°
